Weather History for KBCE - April, 2013

Change the Weather History Date:

Wednesday, April 10, 2013

  Actual Average Record
Temperature  
Mean Temperature 30 °F -  
Max Temperature 44 °F 54 °F 68 °F (2014)
Min Temperature 17 °F 23 °F 7 °F (1975)
Degree Days  
Heating Degree Days 34    
Moisture  
Dew Point 18 °F    
Average Humidity 60    
Maximum Humidity 85    
Minimum Humidity 36    
Precipitation  
Precipitation 0.00 in - - ()
Sea Level Pressure  
Sea Level Pressure 30.01 in    
Wind  
Wind Speed 11 mph (NW)    
Max Wind Speed 23 mph    
Max Gust Speed 32 mph    
Visibility 10 miles    
Events      
Averages and records for this station are not official NWS values.
T = Trace of Precipitation, MM = Missing Value Source: NWS Daily Summary

Daily Weather History Graph

Daily Weather History Graph

Search for Another Location

Airport or City:

Trip Planner

Search our weather history database for the weather conditions in past years. The results will help you decide how hot, cold, wet, or windy it might be!

Date:

Astronomy

Apr. 10, 2013 Rise Set
Actual Time 7:00 AM MDT 7:59 PM MDT
Civil Twilight 6:33 AM MDT 8:26 PM MDT
Nautical Twilight 6:01 AM MDT 8:58 PM MDT
Astronomical Twilight 5:28 AM MDT 9:31 PM MDT
Moon 6:59 AM MDT (4/10) 8:38 PM MDT (4/10)
Length of Visible Light 13h 53m
Length of Day
12h 59m
New Moon, 0% of the Moon is Illuminated
Apr 10
New Moon
Apr 18
First Quarter
Apr 25
Full
May 2
Last Quarter
May 9
New

Hourly Weather History & Observations

Time (MDT) Temp. Windchill Dew Point Humidity Pressure Visibility Wind Dir Wind Speed Gust Speed Precip Events Conditions
12:53 AM 19.9 °F 8.6 °F 16.0 °F 85% 30.02 in 10.0 mi WNW 10.4 mph - N/A   Clear
1:53 AM 21.0 °F 10.6 °F 12.9 °F 71% 30.00 in 10.0 mi NW 9.2 mph - N/A   Clear
2:53 AM 18.0 °F 9.8 °F 14.0 °F 84% 30.03 in 10.0 mi WNW 5.8 mph - N/A   Clear
3:53 AM 17.1 °F 8.7 °F 12.0 °F 81% 30.00 in 10.0 mi West 5.8 mph - N/A   Clear
4:53 AM 18.0 °F - 12.0 °F 78% 29.99 in 10.0 mi Calm Calm - N/A   Scattered Clouds
5:53 AM 18.0 °F 11.1 °F 12.0 °F 78% 30.02 in 10.0 mi NW 4.6 mph - N/A   Partly Cloudy
6:53 AM 18.0 °F 6.1 °F 12.0 °F 78% 30.03 in 10.0 mi WNW 10.4 mph - N/A   Clear
7:53 AM 21.0 °F 10.6 °F 14.0 °F 74% 30.05 in 10.0 mi West 9.2 mph - N/A   Clear
8:53 AM 27.0 °F 15.6 °F 17.1 °F 66% 30.04 in 10.0 mi NNE 13.8 mph - N/A   Clear
9:53 AM 30.9 °F 20.7 °F 19.0 °F 61% 30.04 in 10.0 mi NNE 13.8 mph - N/A   Clear
10:53 AM 35.1 °F 23.5 °F 19.0 °F 52% 30.03 in 10.0 mi NNE 21.9 mph 28.8 mph N/A   Clear
11:53 AM 37.0 °F 27.4 °F 21.0 °F 52% 30.02 in 10.0 mi NE 17.3 mph 23.0 mph N/A   Clear
12:53 PM 39.9 °F 33.9 °F 19.0 °F 43% 30.01 in 10.0 mi East 9.2 mph - N/A   Clear
1:28 PM 41.0 °F 32.5 °F 15.8 °F 36% 30.08 in 10.0 mi WNW 17.3 mph 25.3 mph N/A   Clear
1:53 PM 42.1 °F 33.3 °F 19.9 °F 41% 29.99 in 10.0 mi WNW 19.6 mph 24.2 mph N/A   Clear
2:53 PM 42.1 °F 33.6 °F 21.9 °F 45% 29.99 in 10.0 mi WNW 18.4 mph 26.5 mph N/A   Clear
3:53 PM 42.1 °F 32.8 °F 21.0 °F 43% 29.99 in 10.0 mi WNW 21.9 mph 32.2 mph N/A   Clear
4:53 PM 42.1 °F 32.6 °F 19.0 °F 40% 29.97 in 10.0 mi WNW 23.0 mph 32.2 mph N/A   Clear
5:53 PM 44.1 °F 36.5 °F 19.0 °F 37% 29.97 in 10.0 mi NNW 17.3 mph 27.6 mph N/A   Overcast
6:53 PM 41.0 °F 31.6 °F 21.0 °F 45% 29.99 in 10.0 mi NW 20.7 mph 28.8 mph N/A   Mostly Cloudy
7:53 PM 37.0 °F 28.9 °F 21.0 °F 52% 30.01 in 10.0 mi WNW 12.7 mph 20.7 mph N/A   Clear
8:53 PM 34.0 °F 25.5 °F 21.9 °F 61% 29.99 in 10.0 mi WNW 11.5 mph - N/A   Clear
9:53 PM 34.0 °F 24.6 °F 21.9 °F 61% 29.98 in 10.0 mi NW 13.8 mph 23.0 mph N/A   Clear
10:53 PM 32.0 °F - 21.9 °F 66% 29.99 in 10.0 mi Calm Calm - N/A   Clear